[[{"header":{"parameterUnit":"m.s-1","parameterCategory":1,"la1":30.2991,"la2":30.254,"lo1":-89.0895,"lo2":-89.0444,"dy":0.0017,"dx":0.0017,"nx":28,"ny":28,"refTime":"2025-11-29T03:00:00:Z","depth":0,"parameterNumber":2,"parameterNumberName":"U-component_of_WINDS"},"data":[0,0,0,0,0,0,0,0,0,0,0,0,0,0,0,0,0,0,0,0,0,0,0,0,0,0,0,0,0,0,0,0,0,0,0,0,0,0,0,0,0,0,0,0,0,0,0,0,0,0,0,0,0,0,0,0,0,0,-3.9735,-3.9736,0,-3.9845,-3.9847,-3.9848,-3.9875,-3.9874,-3.9873,-3.9873,-3.9988,-3.9991,-3.9995,0,0,0,0,0,0,0,0,0,0,0,0,0,-3.9549,-3.9552,-3.9735,-3.9736,-3.9738,-3.9845,-3.9847,-3.9848,-3.9875,-3.9874,-3.9873,-3.9872,-3.9986,-3.9991,-3.9995,0,0,0,0,0,0,0,0,0,0,0,0,0,-3.9642,-3.9554,-3.9735,-3.9764,-3.9768,-3.9845,-3.9847,-3.9849,-3.9875,-3.9874,-3.9873,-3.9872,-3.9985,-3.999,-3.9996,-4.0053,0,0,-4.0013,-4.0015,0,0,0,0,0,0,0,0,-3.9637,-3.9649,-3.9758,-3.9762,-3.9766,-3.9845,-3.9823,-3.9917,-3.9875,-3.9834,-3.9873,-3.9871,-3.9941,-3.995,-3.9973,-4.0058,-4.0063,-4.0013,-4.0017,-4.0019,-4.0021,0,0,0,0,0,0,0,-3.963,-3.9644,-3.9779,-3.976,-3.9765,-3.9772,-3.9784,-3.9841,-3.9893,-3.9838,-3.984,-3.9853,-3.9943,-3.9968,-3.9976,-4.0065,-4.0013,-4.0018,-4.0022,-4.0024,-4.0201,-4.0202,0,0,0,0,0,0,-3.9618,-3.9638,-3.9775,-3.9782,-3.9697,-3.9776,-3.979,-3.9821,-3.9892,-3.9902,-3.9853,-3.9853,-3.9959,-3.997,-3.9981,-4.0051,-4.0019,-4.0025,-4.0028,-4.02,-4.0201,-4.0203,0,0,0,0,0,0,-3.9614,-3.963,-3.9771,-3.9711,-3.9729,-3.9781,-3.9816,-3.9824,-3.9848,-3.9904,-3.9913,-3.9869,-3.9959,-3.9973,-4.0034,-4.0055,-4.0027,-4.0032,-4.0198,-4.02,-4.0202,-4.0193,0,0,0,0,0,0,-3.9609,-3.9629,-3.965,-3.9711,-3.9732,-3.9822,-3.9817,-3.9827,-3.9858,-3.9859,-3.9921,-3.993,-3.9959,-4.0026,-4.004,-4.0063,-4.0037,-4.0197,-4.0199,-4.0201,-4.0191,-4.0194,-4.0196,0,0,0,0,0,-3.9602,-3.9644,-3.9651,-3.9667,-3.976,-3.9823,-3.9835,-3.9866,-3.9859,-3.9882,-3.9917,-3.9928,-4.0051,-4.0032,-4.0048,-4.0073,-4.0195,-4.0198,-4.0201,-4.019,-4.0193,-4.0196,0,0,0,0,0,0,-3.9584,-3.9652,-3.9661,-3.9723,-3.9767,-3.9827,-3.9856,-3.9869,-3.9916,-3.9915,-3.9953,-3.9967,-4.0026,-4.0056,-4.0033,-4.0131,-4.0123,-4.013,-4.0109,-4.0113,-4.0115,-4.0106,-4.0041,0,0,0,0,0,-3.9587,-3.9632,-3.9689,-3.9739,-3.976,-3.9804,-3.9833,-3.9853,-3.99,-3.9919,-3.9959,-4.0005,-4.0054,-4.0085,-4.0134,-4.0196,-4.021,-4.0221,-4.0224,-4.0226,-4.023,-4.0266,-4.0271,-4.0213,-4.0213,-4.0213,0,0,-3.9595,-3.9637,-3.9663,-3.9736,-3.9773,-3.9818,-3.982,-3.9868,-3.9903,-3.9927,-3.9987,-4.0018,-4.0072,-4.0134,-4.0164,-4.0161,-4.025,-4.023,-4.0231,-4.0235,-4.0269,-4.0275,-4.028,-4.0215,-4.0214,-4.0214,0,0,-3.9631,-3.9668,-3.9713,-3.9749,-3.9804,-3.9833,-3.9844,-3.9902,-3.9924,-3.9985,-4.0003,-4.0046,-4.0129,-4.0166,-4.0196,-4.0247,-4.0259,-4.0262,-4.0275,-4.0309,-4.0313,-4.0318,-4.0335,-4.0341,-4.0267,-4.0267,-4.0267,0,-3.9633,-3.9702,-3.9734,-3.9782,-3.9813,-3.9837,-3.9883,-3.9917,-3.9985,-4.0006,-4.0002,-4.0108,-4.0146,-4.0216,-4.0229,-4.0253,-4.0266,-4.0254,-4.031,-4.0315,-4.0319,-4.0336,-4.0343,-4.0267,-4.0267,-4.0267,-4.0267,0,-3.9702,-3.9749,-3.9779,-3.9843,-3.9878,-3.9925,-3.9965,-3.9997,-4.0014,-4.0044,-4.0106,-4.0153,-4.021,-4.0229,-4.0247,-4.0303,-4.0299,-4.0303,-4.0295,-4.0324,-4.0341,-4.0347,-4.0267,-4.0267,-4.0267,-4.0267,0,0,-3.9729,-3.981,-3.982,-3.9849,-3.9912,-3.9949,-3.9998,-4.0053,-4.0079,-4.0126,-4.0167,-4.0237,-4.0241,-4.0275,-4.0297,-4.0327,-4.0364,-4.0327,-4.0329,-4.0331,-4.0427,-4.0423,-4.043,-4.0372,-4.0374,-4.0375,-4.0422,0,-3.9772,-3.9857,-3.9887,-3.9958,-4.0002,-4.0025,-4.0067,-4.011,-4.014,-4.0182,-4.0216,-4.0264,-4.0265,-4.0286,-4.0316,-4.0352,-4.0383,-4.035,-4.0411,-4.0413,-4.0395,-4.0439,-4.0436,-4.0478,-4.0429,-4.043,-4.0431,0,-3.9833,-3.9879,-3.9953,-4.0009,-4.0029,-4.0066,-4.012,-4.016,-4.021,-4.0229,-4.0267,-4.0288,-4.0339,-4.033,-4.0401,-4.0378,-4.0405,-4.0427,-4.0429,-4.0435,-4.0422,-4.0445,-4.0492,-4.0498,-4.0442,-4.0441,-4.044,0,-3.9844,-3.9925,-3.9979,-4.0004,-4.0071,-4.0096,-4.0126,-4.0175,-4.0206,-4.0253,-4.0274,-4.0327,-4.0356,-4.0397,-4.0432,-4.0422,-4.05,-4.0494,-4.0518,-4.0517,-4.0532,-4.053,-4.0583,-4.0552,-4.0552,-4.0551,-4.0551,0,-3.9888,-3.9932,-3.9985,-4.0018,-4.0069,-4.0104,-4.0154,-4.0185,-4.0228,-4.0268,-4.0293,-4.033,-4.0375,-4.0418,-4.0446,-4.0501,-4.0514,-4.0531,-4.0538,-4.0528,-4.0526,-4.0546,-4.0543,-4.0553,-4.0553,-4.0552,-4.0552,0,-3.9908,-3.9945,-4.0006,-4.0065,-4.0081,-4.0115,-4.0166,-4.02,-4.0231,-4.0281,-4.0296,-4.0344,-4.0397,-4.0436,-4.0504,-4.0523,-4.0581,-4.0589,-4.0564,-4.0567,-4.0588,-4.0585,-4.0654,-4.0665,-4.0627,-4.0628,-4.0628,0,-3.9933,-3.9967,-4.003,-4.0058,-4.0087,-4.0133,-4.0164,-4.0201,-4.0234,-4.0293,-4.032,-4.0374,-4.0419,-4.0502,-4.0544,-4.0596,-4.0605,-4.0625,-4.0613,-4.0602,-4.0604,-4.0601,-4.0604,-4.0626,-4.0627,-4.0627,-4.0627,0,-3.9973,-3.999,-4.0034,-4.0086,-4.0123,-4.0165,-4.0208,-4.023,-4.0275,-4.031,-4.0364,-4.0399,-4.0468,-4.0521,-4.0578,-4.061,-4.0626,-4.0631,-4.0639,-4.0629,-4.0613,-4.0621,-4.0567,-4.0629,-4.0629,-4.0628,-4.0628,-4.0628,-3.9996,-4.0027,-4.0076,-4.0125,-4.0161,-4.02,-4.0234,-4.0269,-4.0314,-4.0372,-4.0392,-4.0447,-4.0497,-4.0574,-4.0606,-4.0651,-4.065,-4.0662,-4.0665,-4.0667,-4.0666,-4.0606,-4.0661,-4.0661,-4.0661,-4.0661,-4.0661,0,-4.0037,-4.0069,-4.0113,-4.0172,-4.0211,-4.0222,-4.027,-4.0302,-4.0349,-4.0394,-4.0437,-4.0499,-4.0551,-4.0597,-4.0651,-4.0677,-4.0686,-4.069,-4.0688,-4.0695,-4.0664,-4.0651,-4.0682,-4.0682,-4.0682,-4.0682,-4.0682,-4.0682,-4.0062,-4.0115,-4.0138,-4.0209,-4.0242,-4.0295,-4.0321,-4.0358,-4.0393,-4.046,-4.0503,-4.0533,-4.0578,-4.0635,-4.0684,-4.0696,-4.0715,-4.0717,-4.0731,-4.07,-4.0697,-4.0695,-4.0683,-4.0721,-4.0721,-4.0758,-4.0759,-4.0759]},{"header":{"parameterUnit":"m.s-1","parameterCategory":1,"la1":30.2991,"la2":30.254,"lo1":-89.0895,"lo2":-89.0444,"dy":0.0017,"dx":0.0017,"nx":28,"ny":28,"refTime":"2025-11-29T03:00:00:Z","depth":0,"parameterNumber":3,"parameterNumberName":"V-component_of_WINDS"},"data":[0,0,0,0,0,0,0,0,0,0,0,0,0,0,0,0,0,0,0,0,0,0,0,0,0,0,0,0,0,0,0,0,0,0,0,0,0,0,0,0,0,0,0,0,0,0,0,0,0,0,0,0,0,0,0,0,0,0,4.0326,4.0327,0,4.0383,4.0384,4.0385,4.0382,4.0381,4.038,4.0379,4.0433,4.0435,4.0438,0,0,0,0,0,0,0,0,0,0,0,0,0,4.021,4.0212,4.0326,4.0327,4.0327,4.0383,4.0384,4.0385,4.0382,4.0381,4.038,4.0379,4.0433,4.0435,4.0438,0,0,0,0,0,0,0,0,0,0,0,0,0,4.0263,4.0213,4.0326,4.0333,4.0334,4.0383,4.0384,4.0385,4.0382,4.0381,4.038,4.0378,4.0432,4.0435,4.0438,4.0483,0,0,4.0448,4.045,0,0,0,0,0,0,0,0,4.026,4.0267,4.0331,4.0332,4.0334,4.0374,4.0363,4.0418,4.0382,4.0364,4.0379,4.0378,4.0414,4.0419,4.0432,4.0485,4.0488,4.0449,4.0451,4.0452,4.0453,0,0,0,0,0,0,0,4.0256,4.0265,4.0349,4.0332,4.0334,4.0332,4.0338,4.0373,4.0395,4.0365,4.0365,4.0372,4.0415,4.0429,4.0434,4.0489,4.0448,4.0451,4.0453,4.0455,4.0582,4.0583,0,0,0,0,0,0,4.0252,4.0262,4.0347,4.035,4.0293,4.0335,4.0342,4.0362,4.0395,4.0398,4.0373,4.0372,4.0424,4.043,4.0435,4.049,4.0452,4.0455,4.0457,4.0581,4.0582,4.0584,0,0,0,0,0,0,4.0249,4.0259,4.0344,4.0306,4.0317,4.0338,4.0361,4.0364,4.0379,4.0401,4.0404,4.0384,4.0423,4.0431,4.0472,4.0492,4.0457,4.046,4.0579,4.0581,4.0583,4.06,0,0,0,0,0,0,4.0246,4.0258,4.0276,4.0307,4.0319,4.0381,4.0363,4.0366,4.0385,4.0384,4.0412,4.0415,4.0423,4.0467,4.0475,4.0496,4.0462,4.0577,4.058,4.0582,4.0598,4.0603,4.0607,0,0,0,0,0,4.0242,4.0278,4.0277,4.0288,4.0342,4.0382,4.0389,4.0398,4.0386,4.0404,4.0419,4.0414,4.0489,4.0471,4.048,4.0503,4.0576,4.0579,4.0582,4.0596,4.0602,4.0607,0,0,0,0,0,0,4.0247,4.0282,4.0282,4.0329,4.0353,4.0381,4.0404,4.0404,4.0431,4.0428,4.0437,4.0444,4.0485,4.0498,4.0477,4.0548,4.0531,4.0536,4.0538,4.0544,4.0548,4.0544,4.0465,0,0,0,0,0,4.0254,4.0285,4.0313,4.0352,4.0364,4.0382,4.04,4.0406,4.043,4.044,4.0457,4.048,4.0508,4.0527,4.0554,4.06,4.0606,4.062,4.0625,4.0628,4.0632,4.0658,4.0665,4.0594,4.0594,4.0594,0,0,4.0268,4.0291,4.031,4.0354,4.0373,4.0404,4.0391,4.0423,4.0446,4.0444,4.0484,4.0498,4.0524,4.0568,4.0588,4.058,4.0653,4.0632,4.0635,4.0637,4.0662,4.0669,4.0674,4.0596,4.0596,4.0596,0,0,4.031,4.0331,4.0366,4.0386,4.0416,4.0428,4.0436,4.0466,4.0475,4.0516,4.0516,4.0542,4.0591,4.061,4.0626,4.0677,4.0674,4.0685,4.0708,4.0733,4.0739,4.0744,4.0762,4.0768,4.0689,4.0689,4.0689,0,4.0323,4.0371,4.0383,4.0417,4.0436,4.0438,4.0473,4.0492,4.0528,4.0541,4.0532,4.0595,4.0612,4.0661,4.0673,4.0686,4.0696,4.0682,4.0737,4.0742,4.0747,4.0765,4.0771,4.0691,4.0691,4.069,4.069,0,4.0386,4.042,4.0444,4.0482,4.0504,4.0538,4.0554,4.0575,4.0579,4.0592,4.0634,4.0655,4.0687,4.0699,4.0702,4.0749,4.0743,4.0735,4.0718,4.0755,4.0771,4.0778,4.0692,4.0692,4.0692,4.0691,0,0,4.0432,4.0478,4.0486,4.0504,4.0538,4.0563,4.0598,4.0631,4.0649,4.0674,4.0703,4.0745,4.0739,4.0757,4.0763,4.0785,4.0824,4.0775,4.0776,4.0783,4.0877,4.0882,4.089,4.0823,4.0824,4.0825,4.0874,0,4.0477,4.054,4.0552,4.0606,4.0637,4.064,4.067,4.0693,4.0706,4.0733,4.0747,4.0777,4.0767,4.0778,4.08,4.0815,4.0843,4.0811,4.0849,4.085,4.0842,4.0898,4.0904,4.0949,4.0881,4.0882,4.0883,0,4.0538,4.0568,4.0625,4.0657,4.067,4.0697,4.0729,4.0755,4.0782,4.079,4.0812,4.0815,4.085,4.0832,4.088,4.0858,4.0874,4.0884,4.0886,4.0889,4.0868,4.0903,4.0964,4.097,4.0893,4.0892,4.0892,0,4.0566,4.062,4.0662,4.0677,4.0714,4.0733,4.0749,4.0775,4.0795,4.0822,4.0835,4.0866,4.0883,4.0906,4.0917,4.0903,4.0965,4.0947,4.0971,4.0971,4.0984,4.0983,4.1048,4.0994,4.0994,4.0994,4.0994,0,4.0615,4.065,4.0675,4.07,4.074,4.0753,4.0792,4.0807,4.0831,4.0859,4.0862,4.0888,4.0902,4.0929,4.0938,4.0977,4.0984,4.0991,4.0993,4.0991,4.099,4.1001,4.0998,4.0996,4.0996,4.0995,4.0995,0,4.0652,4.067,4.0716,4.0749,4.0758,4.0785,4.0813,4.0837,4.0851,4.0886,4.0895,4.0916,4.0949,4.0963,4.1003,4.1009,4.1053,4.1053,4.1045,4.1046,4.1069,4.1067,4.1143,4.1154,4.1094,4.1094,4.1095,0,4.0682,4.071,4.0746,4.0766,4.0784,4.0815,4.0836,4.0851,4.0872,4.0905,4.0926,4.0959,4.0987,4.1039,4.1057,4.1088,4.1088,4.1113,4.1093,4.109,4.1089,4.1087,4.109,4.1116,4.1117,4.1118,4.1118,0,4.0734,4.0742,4.0773,4.0808,4.0833,4.086,4.0886,4.0902,4.0921,4.0944,4.0979,4.1001,4.1043,4.1076,4.1108,4.1123,4.1124,4.1125,4.1132,4.1129,4.1124,4.1127,4.1055,4.1122,4.1122,4.1122,4.1121,4.1121,4.0769,4.0794,4.0824,4.0858,4.088,4.0905,4.0931,4.0948,4.0978,4.1015,4.1021,4.1058,4.1085,4.1128,4.1145,4.1174,4.1167,4.1178,4.118,4.1183,4.1184,4.112,4.1179,4.1179,4.1179,4.1179,4.1179,0,4.0821,4.0841,4.0872,4.0911,4.0938,4.0938,4.0968,4.099,4.1023,4.1049,4.1077,4.1117,4.1149,4.1171,4.1203,4.1222,4.1223,4.123,4.1229,4.1232,4.1188,4.1179,4.1229,4.1229,4.1229,4.1229,4.1229,4.1229,4.0851,4.0894,4.0905,4.0959,4.0978,4.1016,4.1033,4.1056,4.1077,4.1122,4.115,4.1165,4.1188,4.1223,4.1253,4.1258,4.127,4.1277,4.1282,4.124,4.1235,4.123,4.1221,4.128,4.128,4.1324,4.1324,4.1325]}]]